DW0793 Weather Reports


Display with metric or nautical units.
time (UTC)temp
F
wind
direction
speed
MPH
gust
MPH
rain 1hr
in
rain 24hr
in
rain mn
in
humidity
%
barometer
mb
20260504232303 70 225 0.0 6.0 0.00 0.00 0.00 52 1008.1
20260504231803 70 223 1.0 8.0 0.00 0.00 0.00 51 1008.1
20260504231303 70 221 1.0 5.0 0.00 0.00 0.00 51 1008.2
20260504230804 70 238 1.0 6.0 0.00 0.00 0.00 51 1008.1
20260504230303 71 237 1.0 7.0 0.00 0.00 0.00 51 1008.0
20260504225804 71 229 2.0 7.0 0.00 0.00 0.00 50 1007.9
20260504225304 71 196 1.0 7.0 0.00 0.00 0.00 50 1008.0
20260504224803 71 174 0.0 3.0 0.00 0.00 0.00 50 1007.9
20260504224303 71 232 1.0 9.0 0.00 0.00 0.00 50 1008.1
20260504223803 71 201 2.0 9.0 0.00 0.00 0.00 51 1007.9
20260504223303 71 236 1.0 12.0 0.00 0.00 0.00 49 1008.0
20260504222803 71 228 3.0 12.0 0.00 0.00 0.00 49 1007.9
20260504222304 71 228 2.0 8.0 0.00 0.00 0.00 50 1007.9
20260504221802 71 237 1.0 8.0 0.00 0.00 0.00 49 1007.9
20260504221302 72 228 2.0 12.0 0.00 0.00 0.00 49 1007.9
20260504220803 72 215 1.0 12.0 0.00 0.00 0.00 50 1008.0
20260504215803 72 222 3.0 9.0 0.00 0.00 0.00 49 1008.1
20260504214803 72 217 1.0 10.0 0.00 0.00 0.00 48 1008.1
20260504214303 72 200 1.0 6.0 0.00 0.00 0.00 49 1008.2
20260504213803 72 227 3.0 9.0 0.00 0.00 0.00 48 1008.2
20260504213303 72 202 0.0 6.0 0.00 0.00 0.00 50 1008.1
20260504212803 72 227 1.0 7.0 0.00 0.00 0.00 49 1008.1
20260504212304 72 201 1.0 7.0 0.00 0.00 0.00 49 1008.2
20260504211803 72 245 4.0 12.0 0.00 0.00 0.00 48 1008.3
20260504211302 72 231 1.0 9.0 0.00 0.00 0.00 51 1008.2
20260504210303 72 209 1.0 9.0 0.00 0.00 0.00 49 1008.1
20260504205802 72 217 2.0 13.0 0.00 0.00 0.00 48 1008.3
20260504205304 73 189 2.0 14.0 0.00 0.00 0.00 48 1008.2
20260504204802 73 233 1.0 8.0 0.00 0.00 0.00 50 1008.3
20260504204302 72 223 1.0 3.0 0.00 0.00 0.00 49 1008.4
20260504203803 72 233 0.0 7.0 0.00 0.00 0.00 49 1008.4
20260504203303 72 180 4.0 10.0 0.00 0.00 0.00 48 1008.5
20260504202803 72 238 4.0 13.0 0.00 0.00 0.00 49 1008.5
20260504202305 72 211 5.0 14.0 0.00 0.00 0.00 49 1008.6
20260504201803 72 159 1.0 12.0 0.00 0.00 0.00 48 1008.6
20260504201303 73 218 1.0 12.0 0.00 0.00 0.00 49 1008.6
20260504200803 72 213 2.0 10.0 0.00 0.00 0.00 49 1008.6
20260504200303 72 234 4.0 12.0 0.00 0.00 0.00 48 1008.8